RH
59 60 62 62 64 67 67 69 67 63 64 63 62 61 60 60 59 63 66 68 67 68 71 73 72 71 74 77 78 80 82 82 83 87 85 82 80 76 74 73 72 72 71 70 71 73 72 69 65 65 67 66 63 60 57 57 57 59 57 55 56 55 52 50 48 46 45 44 42 40 38 38 37 36 37 38 39 38 39 39 38 38 40 43 45 46 48 49 50 51 51 51 52 52 54 56 58
57 56 56 57 60 63 60 64 66 62 64 63 61 60 60 60 61 63 68 71 67 66 69 71 70 71 74 74 76 78 80 80 78 80 80 80 79 74 72 72 71 70 69 69 69 70 69 66 61 59 60 61 60 56 53 53 54 54 53 52 52 51 51 50 48 46 43 43 41 40 40 39 38 39 41 42 43 41 41 40 40 41 43 46 47 48 49 49 50 50 51 51 51 52 52 53 56
55 54 52 52 56 59 58 62 65 60 62 61 59 59 60 62 62 64 66 66 63 65 67 67 68 70 72 72 73 75 76 76 74 76 78 79 77 73 70 70 69 68 67 67 68 67 65 61 56 54 56 59 58 55 52 52 53 52 51 49 48 48 48 47 46 44 42 42 42 42 42 41 41 42 44 45 46 44 42 42 43 44 46 48 48 49 49 50 50 49 50 51 51 51 51 51 53
50 51 50 52 51 51 52 54 58 54 55 56 57 57 59 62 62 62 61 58 57 60 62 62 63 67 72 71 70 72 73 73 73 74 76 77 74 71 70 69 68 67 66 64 65 65 62 56 52 50 53 58 59 56 53 53 53 52 51 48 47 46 45 45 44 43 44 44 44 44 44 44 44 45 47 48 48 46 45 45 45 46 49 50 50 50 50 50 49 47 48 49 50 50 51 52 52
48 48 48 50 45 42 41 41 45 44 48 50 51 56 57 60 60 56 56 55 55 55 56 58 59 63 69 69 68 71 72 72 74 74 73 75 70 69 69 66 66 66 64 62 61 61 59 55 51 50 52 58 59 57 54 52 52 52 50 48 45 44 44 44 45 45 46 46 46 46 46 47 47 48 48 49 48 47 46 46 47 48 51 52 52 52 51 50 47 46 46 48 48 50 53 53 54
49 49 45 45 41 42 40 33 34 31 37 43 43 51 55 57 57 53 54 54 54 55 54 57 58 59 63 66 69 72 72 72 74 73 74 74 68 67 67 65 66 65 63 62 60 58 55 54 52 52 54 55 55 53 52 51 51 50 48 46 45 44 44 43 44 45 47 48 47 48 48 49 49 49 48 48 48 48 48 48 50 52 54 54 55 54 52 50 47 47 47 48 49 51 54 54 55
52 51 47 44 37 40 39 30 32 27 28 35 34 40 48 52 52 51 52 50 52 55 54 53 55 60 62 65 70 71 71 71 72 73 73 73 68 66 66 65 65 63 60 59 61 57 53 51 51 53 53 52 52 51 50 49 49 49 47 47 46 45 45 43 44 44 46 47 48 49 49 50 50 49 48 48 48 49 49 49 52 55 56 56 56 55 54 51 49 51 50 50 50 52 53 54 55
54 51 47 46 35 32 34 29 31 28 25 29 29 32 39 43 46 50 51 48 49 52 54 52 54 61 63 66 69 70 71 70 71 71 72 70 66 64 64 64 61 59 56 56 58 56 53 50 51 52 50 50 52 50 49 49 48 47 47 48 47 46 46 44 43 44 45 46 49 50 50 49 49 48 48 48 49 50 50 51 54 56 57 57 57 56 55 54 54 54 53 53 53 53 53 52 54
54 50 46 47 37 30 30 28 28 27 27 28 28 30 32 36 42 48 48 48 48 50 54 53 55 60 61 66 69 70 71 71 71 71 70 67 62 60 60 60 56 53 53 55 55 52 51 52 54 51 49 50 51 50 50 48 46 45 46 47 46 45 44 43 43 44 45 48 50 50 50 49 49 50 49 50 51 51 51 52 55 56 56 56 57 57 57 57 57 56 56 57 56 54 54 54 54
53 50 46 45 38 33 31 30 29 27 28 30 30 29 31 34 39 45 45 47 46 49 54 53 56 59 59 65 67 67 71 72 71 69 67 63 58 57 56 57 54 51 53 55 53 51 52 54 54 51 49 51 50 49 49 49 47 45 45 45 44 42 42 43 45 46 47 48 49 49 49 49 50 50 50 51 51 51 52 54 57 58 56 56 59 61 62 60 60 59 58 60 58 58 57 56 55
53 48 45 43 39 39 36 35 31 26 28 32 31 28 32 34 37 44 46 46 45 47 50 53 55 55 57 64 67 67 69 70 67 63 62 59 56 55 55 56 55 52 54 55 53 52 52 54 54 50 48 50 49 48 47 47 46 44 45 43 42 43 44 46 47 48 48 49 49 49 49 50 50 50 50 51 51 52 54 56 59 60 58 58 63 67 69 67 66 65 62 61 61 62 61 59 56
55 51 46 43 40 41 40 39 35 29 28 30 29 27 29 31 36 43 48 48 44 43 45 53 56 51 54 60 65 66 66 65 62 59 58 56 53 53 53 55 55 53 55 56 56 54 53 52 52 50 49 50 49 47 44 44 45 46 45 44 44 45 46 48 48 49 50 51 51 51 51 52 52 52 52 52 53 56 58 57 58 61 60 60 66 70 75 72 70 71 68 66 66 65 64 63 61
55 52 47 42 40 42 43 41 36 33 29 26 26 23 23 27 33 39 46 48 45 44 44 49 53 51 51 53 60 64 63 61 60 59 57 55 53 53 53 54 54 54 54 54 53 52 51 48 47 49 49 50 49 45 43 44 45 46 45 44 45 47 49 49 48 50 51 52 53 54 54 54 53 53 53 54 58 59 59 57 58 62 62 64 69 71 74 71 70 70 68 70 70 69 68 66 67
52 50 47 43 38 39 43 42 38 36 30 25 24 20 20 26 31 34 39 45 48 47 42 42 48 50 49 49 55 59 60 59 59 60 58 56 54 54 54 53 53 53 54 52 48 47 46 43 44 46 46 48 47 44 43 43 45 45 45 44 45 48 50 49 49 50 51 53 54 54 55 56 54 54 54 54 57 59 58 58 60 64 65 68 68 69 69 68 69 67 65 68 68 69 70 69 69
51 50 47 43 39 39 42 43 41 38 29 23 22 19 21 24 27 32 35 41 47 43 38 38 44 49 47 46 48 51 56 56 57 59 58 56 55 54 53 53 52 52 53 51 47 45 45 44 44 44 43 44 45 45 44 44 44 44 45 45 46 49 49 50 49 50 52 53 54 54 55 55 55 55 55 53 53 56 59 59 61 64 66 67 65 65 65 64 67 64 62 63 63 65 66 66 66
50 49 49 45 43 42 42 43 43 41 34 26 21 19 22 21 24 33 33 35 36 35 37 38 40 45 44 43 43 45 50 52 55 57 56 55 55 54 53 52 51 50 50 50 48 46 46 46 46 44 43 44 45 45 45 45 43 43 44 45 46 48 48 49 49 49 50 52 53 54 53 53 54 54 53 52 52 55 58 59 60 61 63 64 63 62 61 59 59 58 57 57 57 57 56 56 57
49 50 52 48 46 46 43 45 45 43 39 31 23 22 23 20 23 28 26 28 29 31 37 36 36 40 39 41 42 42 46 49 52 54 53 52 52 52 51 50 50 47 47 47 45 45 44 44 44 43 44 44 46 45 44 45 43 43 45 45 46 46 46 46 46 46 47 48 50 50 51 52 53 53 52 53 54 55 57 59 59 59 60 61 61 59 57 55 53 51 51 51 51 51 51 52 53
49 52 54 50 48 47 45 47 47 43 41 35 27 25 26 21 21 23 20 24 26 29 36 34 33 37 38 40 41 42 45 47 49 52 51 50 49 49 48 47 47 46 45 44 42 43 43 42 41 42 44 44 45 45 44 44 43 42 44 44 44 44 44 44 44 44 44 45 45 46 48 50 51 51 52 51 52 53 53 54 56 56 58 59 58 56 54 51 49 48 47 47 48 48 48 50 52
49 53 55 50 47 46 44 46 46 43 41 38 33 31 31 24 21 21 22 24 23 26 32 32 33 37 39 40 42 43 43 46 47 47 46 45 44 43 44 45 46 46 45 44 43 44 44 43 42 43 45 43 44 44 44 45 42 43 45 44 43 43 43 43 43 44 44 46 46 46 48 48 48 48 49 48 48 49 50 52 53 55 56 55 54 52 50 48 46 45 45 45 45 46 46 46 47
47 51 55 50 46 44 43 45 44 41 38 38 36 35 33 27 23 22 26 27 21 24 27 28 33 36 39 40 42 43 42 44 44 43 42 41 39 39 42 45 46 46 47 47 46 45 44 43 44 45 46 44 44 43 44 45 42 44 47 46 44 43 44 43 43 45 45 47 47 47 48 47 45 46 46 45 46 48 50 51 53 55 54 53 50 49 50 48 47 46 44 43 44 45 45 44 43
46 50 54 48 44 42 40 41 40 37 35 36 36 37 37 29 24 23 28 29 24 27 26 25 31 33 36 39 40 42 41 42 41 41 40 40 40 40 43 45 45 46 47 49 48 45 42 42 44 45 44 42 43 42 43 45 44 46 46 45 45 45 46 45 43 45 46 46 46 46 48 46 43 44 45 44 45 46 48 51 53 54 52 50 47 48 52 50 48 47 44 44 45 46 45 44 43
44 48 50 46 44 42 38 36 36 35 33 32 31 35 38 30 25 22 27 32 29 32 29 26 30 29 33 37 37 39 40 41 39 38 38 40 41 41 43 43 44 45 47 51 50 45 41 42 44 45 43 40 41 43 44 45 44 46 45 44 46 48 48 46 44 46 46 45 45 46 47 46 43 45 46 44 44 44 46 50 53 53 51 49 48 50 52 48 46 46 44 44 45 46 46 44 42
41 45 45 44 44 42 38 33 32 35 35 31 28 31 32 28 26 20 25 33 29 30 29 25 27 27 31 34 35 37 38 39 37 37 38 39 40 40 42 42 42 43 46 50 51 47 42 43 45 46 45 42 43 45 46 45 44 46 47 46 47 48 47 46 47 48 48 45 44 45 46 48 47 47 48 46 45 44 47 49 51 51 50 50 48 48 48 44 44 44 44 43 42 44 43 41 40
39 43 42 42 45 43 38 32 30 35 38 35 31 29 26 27 30 22 24 31 22 23 25 22 24 26 29 32 34 36 37 39 37 37 38 38 39 40 40 40 40 41 44 47 50 47 42 42 43 43 43 42 43 44 45 46 45 46 47 47 48 47 46 46 49 49 47 45 45 45 45 48 49 49 49 48 47 47 48 48 48 49 48 49 45 42 44 42 43 44 44 43 42 42 41 39 37
39 43 42 40 43 42 38 33 30 34 38 36 34 33 28 30 34 27 27 27 19 20 22 21 24 25 27 30 33 35 37 38 39 39 39 39 39 39 39 39 39 40 42 45 47 45 41 40 40 39 40 40 42 43 44 45 46 47 47 47 47 45 43 45 47 46 46 46 48 47 45 47 48 49 49 49 49 48 47 45 45 46 44 44 41 41 43 41 43 45 44 42 41 39 38 37 34
37 42 42 39 39 38 37 34 32 33 35 34 37 37 34 31 30 28 28 24 19 22 22 23 24 24 26 28 31 34 36 37 38 39 38 38 38 37 37 38 39 39 42 44 44 44 42 39 37 37 39 39 40 41 42 44 45 47 47 45 44 42 41 42 42 43 47 49 50 48 46 46 46 48 50 49 47 45 44 43 43 42 41 40 40 43 43 42 43 44 43 40 38 35 35 35 31
33 37 38 37 35 32 31 32 31 31 31 35 38 37 36 32 28 27 27 23 21 22 23 24 24 24 25 26 29 32 35 36 37 38 37 36 36 36 36 37 39 39 42 43 43 44 42 39 37 36 37 38 38 39 40 41 43 45 44 42 41 40 40 40 40 44 48 50 51 48 46 45 44 45 47 45 43 42 43 43 42 40 40 41 42 43 43 43 41 40 40 37 37 35 34 33 28
30 31 33 33 32 28 24 26 28 28 30 34 35 36 38 33 29 26 24 25 25 23 24 24 24 24 25 25 27 30 33 34 34 34 35 35 35 35 36 38 39 40 42 43 42 42 41 39 39 36 35 36 36 38 39 39 41 42 42 41 40 40 41 41 44 46 47 48 47 43 42 43 43 42 41 40 39 40 41 41 43 41 41 43 43 42 42 41 40 40 39 37 38 35 33 32 23
28 29 32 33 30 26 22 25 28 28 30 32 34 39 40 35 31 27 23 24 25 24 24 24 24 24 25 25 26 29 30 30 31 32 32 34 35 35 37 38 40 40 40 40 39 39 39 39 39 36 34 34 34 36 38 37 38 40 41 40 39 39 41 44 46 47 47 47 43 41 42 42 43 42 41 40 40 41 42 41 43 44 45 45 42 40 39 40 41 43 41 39 39 34 32 28 21
28 28 31 32 30 25 23 26 28 29 31 31 35 40 37 32 32 29 24 22 22 24 23 22 23 23 24 25 25 28 28 29 30 31 31 33 34 35 37 38 37 37 37 37 37 36 36 38 40 38 33 32 32 33 35 35 35 37 39 38 37 38 41 45 47 47 49 47 43 42 43 43 44 44 43 44 45 45 45 45 45 47 47 43 41 43 42 43 44 45 43 41 38 35 33 25 21
27 27 29 29 30 28 24 26 29 30 31 32 37 39 33 29 29 27 25 23 23 24 23 22 22 22 24 24 25 27 27 30 31 31 32 32 34 35 36 36 35 34 35 35 35 33 33 36 38 38 33 30 31 32 33 34 33 33 36 37 36 35 38 43 45 48 51 49 47 47 46 45 45 46 47 48 49 48 46 48 49 48 45 40 44 48 47 47 47 44 43 40 36 34 31 23 21
26 28 29 26 29 32 27 27 31 33 33 34 39 40 35 31 27 25 26 26 26 26 24 22 21 21 23 24 25 26 26 29 31 31 32 32 34 34 34 34 33 33 34 35 35 31 31 33 34 35 32 27 29 30 30 32 31 30 32 34 34 33 35 40 42 46 52 53 51 51 51 48 48 50 50 50 51 49 47 49 51 50 46 42 47 49 48 48 46 43 41 37 31 26 25 22 22
27 28 29 26 29 32 29 30 33 35 34 35 38 40 38 34 29 28 29 28 29 28 26 24 23 21 22 23 24 25 25 27 29 30 31 32 33 32 32 32 32 33 34 35 34 30 29 31 31 32 32 28 26 28 29 30 29 27 28 30 31 32 34 39 43 45 50 52 48 47 49 49 48 48 46 47 47 50 50 48 49 50 46 45 48 48 46 46 44 41 39 32 24 19 22 23 24
27 27 28 29 31 32 31 32 33 34 36 36 38 41 41 37 34 33 32 32 32 29 26 24 24 23 22 22 22 23 25 25 27 29 30 32 32 32 31 31 32 33 34 33 32 31 29 31 32 31 33 31 28 29 29 29 27 26 27 27 29 31 32 38 44 44 43 45 43 42 46 46 45 43 41 42 42 49 53 47 46 47 45 44 44 42 42 42 40 35 30 24 20 18 21 24 23
26 27 27 27 31 33 33 33 34 36 39 38 38 41 40 38 38 37 35 36 36 33 29 25 24 24 22 21 21 21 23 24 26 27 29 30 31 31 30 30 31 31 34 34 32 31 29 31 33 31 32 33 33 31 28 28 28 27 27 27 29 30 30 34 38 39 38 39 39 41 44 45 44 42 41 40 39 45 50 49 48 46 41 39 38 39 41 38 32 26 22 20 19 18 20 24 21
26 28 28 26 29 32 32 34 35 39 41 39 38 40 39 39 42 41 36 37 40 38 36 32 27 24 22 21 20 19 21 23 24 25 27 29 29 30 30 30 30 31 33 33 31 30 29 29 30 29 30 33 35 35 30 28 29 28 28 28 29 30 30 31 33 35 36 38 40 41 42 42 42 41 40 40 37 39 43 48 52 46 37 35 37 40 37 30 25 21 20 19 18 19 23 26 23
27 29 30 28 30 31 32 35 37 40 43 40 37 39 41 40 42 44 41 40 42 42 40 37 31 26 22 20 19 19 20 21 23 24 25 27 28 29 29 29 30 31 30 30 28 27 27 27 27 27 29 32 35 35 33 32 31 30 30 30 30 33 34 33 34 34 36 39 41 39 38 37 37 37 36 34 33 34 35 39 44 42 37 36 36 33 26 21 18 15 14 16 18 20 24 26 25
29 31 29 28 31 33 33 36 39 40 40 40 37 38 41 41 42 46 44 42 44 44 43 40 35 29 23 20 20 19 20 21 22 23 24 25 26 28 29 29 30 30 29 29 26 24 25 25 25 25 27 31 32 33 34 32 32 31 31 31 34 38 39 36 36 36 37 40 37 33 32 32 31 30 29 28 30 32 31 31 33 34 33 33 29 23 18 16 14 13 14 18 21 21 24 26 24
27 29 29 30 33 35 36 37 40 40 38 40 40 38 40 40 42 46 45 42 45 45 44 44 41 35 28 23 22 21 20 21 20 22 24 24 24 26 28 29 30 30 30 29 27 25 24 23 23 23 25 30 30 29 30 32 33 32 32 34 36 39 40 38 36 37 38 38 33 28 26 28 27 25 25 26 27 28 26 26 27 28 28 26 23 19 17 15 13 17 19 21 23 24 25 25 24
26 28 29 32 33 35 39 38 39 40 38 39 41 39 40 40 41 45 44 42 43 44 43 43 43 41 35 28 26 25 25 24 21 21 23 23 23 24 26 28 29 30 30 30 29 27 24 22 22 22 26 30 31 28 28 31 33 32 32 34 35 36 38 38 38 37 36 34 32 29 26 28 27 24 24 25 24 24 23 22 23 24 25 24 21 18 17 17 18 21 22 21 23 25 25 25 26
25 27 28 31 35 36 37 38 38 40 39 38 40 40 39 38 39 42 43 42 41 42 42 42 42 43 40 35 31 30 30 29 27 23 22 22 22 22 24 27 27 28 29 29 29 28 25 22 20 22 25 28 29 27 28 30 31 30 29 30 32 33 36 38 37 34 31 27 27 28 27 27 25 22 22 22 22 22 22 22 20 21 23 22 19 17 17 21 24 25 25 22 23 25 26 26 27
24 27 27 31 36 35 35 37 37 38 39 38 38 40 39 36 36 38 39 42 42 41 42 42 43 45 44 41 36 34 33 33 34 31 27 25 24 23 24 25 26 27 27 27 28 28 24 21 21 23 25 26 27 27 29 29 29 34 33 31 32 32 32 30 28 27 26 23 21 25 26 23 22 21 20 20 21 21 21 21 19 19 20 19 18 18 20 23 24 25 25 24 24 24 25 26 27
22 24 27 30 33 35 36 36 37 38 38 38 38 40 41 38 36 36 37 42 44 41 41 42 44 46 47 46 41 37 36 35 36 36 33 29 28 28 27 26 25 24 25 26 26 26 24 21 22 23 24 26 27 27 27 26 29 33 32 30 29 27 25 22 21 21 23 23 22 23 25 23 23 22 22 23 23 22 22 21 19 19 19 18 18 19 20 23 24 23 23 22 23 23 24 27 27
20 21 26 30 32 36 37 36 38 37 37 41 41 40 44 42 39 39 38 41 44 39 38 39 41 45 48 48 45 41 39 38 37 37 35 32 30 31 31 30 27 24 24 25 25 25 24 22 22 23 23 25 26 26 24 24 26 27 24 24 24 23 23 23 23 23 22 24 25 25 26 26 25 25 26 27 25 24 24 22 21 20 20 19 19 19 21 22 22 22 21 20 20 21 23 26 27
21 22 26 30 33 36 36 36 39 39 39 43 43 42 45 43 39 41 40 41 42 38 36 37 37 41 45 47 48 45 42 41 39 38 37 35 33 33 33 33 31 28 26 26 25 23 22 22 23 23 22 24 25 24 23 23 23 23 22 23 23 24 25 26 29 28 26 26 27 28 29 29 29 29 30 30 27 26 25 24 24 22 21 21 21 23 24 22 21 22 23 22 22 23 23 23 25
22 23 26 30 33 34 35 37 39 41 42 43 42 44 45 40 36 39 41 40 38 34 35 35 35 38 41 42 45 47 46 43 42 40 39 38 37 35 34 33 33 32 31 30 27 24 22 21 22 22 22 23 24 23 23 23 22 22 23 24 26 27 27 27 30 31 28 27 28 29 30 31 33 34 35 33 30 28 27 27 27 26 26 26 26 27 27 26 24 25 26 26 25 27 26 23 23
22 22 24 28 31 33 34 37 39 42 45 43 41 42 43 39 32 33 38 36 32 31 33 34 32 34 37 39 41 44 46 46 45 43 41 42 39 37 35 33 33 33 33 33 31 28 26 22 21 21 22 22 23 23 24 24 24 25 25 26 27 28 26 26 29 30 29 29 30 31 32 34 36 38 37 36 35 33 31 30 30 31 33 31 30 29 29 29 27 28 28 26 24 25 26 24 22
23 21 25 28 30 33 35 38 40 44 47 43 38 37 41 40 31 28 33 33 31 31 31 32 32 34 35 37 39 40 42 45 47 45 43 43 41 38 36 33 31 30 29 31 30 30 28 25 23 22 23 23 24 24 26 26 26 27 26 26 27 27 28 30 31 31 32 35 36 36 36 38 40 42 40 38 38 38 37 36 36 37 37 36 34 33 32 31 30 31 30 25 24 24 24 23 23
24 23 28 31 32 33 34 36 39 41 42 38 35 36 38 36 31 29 31 32 32 31 30 31 32 34 36 36 37 37 38 41 44 45 44 44 42 39 37 33 29 25 25 26 27 28 29 27 27 26 25 25 26 27 27 27 27 28 27 26 29 31 32 33 36 36 36 39 41 40 40 42 44 46 45 43 41 41 41 40 40 40 40 40 39 37 35 31 30 32 31 28 29 28 25 23 25
24 25 28 30 32 35 33 33 36 37 35 33 35 39 37 31 29 29 29 30 30 30 31 30 29 32 35 36 37 36 36 37 39 43 44 43 42 42 41 37 30 25 24 24 24 27 28 29 30 29 28 28 28 28 28 29 29 28 29 29 32 36 36 37 39 39 40 41 42 42 43 44 44 46 48 46 44 43 44 44 43 43 44 43 43 42 38 31 28 31 32 31 32 31 28 27 28
21 23 26 26 29 35 34 32 33 32 30 30 34 38 34 28 26 27 28 29 29 29 30 29 28 30 32 34 35 35 36 36 37 41 44 43 42 43 43 39 33 27 26 25 24 26 29 31 32 32 32 31 28 28 30 30 30 30 32 33 35 38 40 40 40 41 44 47 46 45 45 46 46 47 49 47 43 42 45 46 45 44 42 41 45 46 40 34 29 30 33 32 32 32 30 29 30
21 23 27 26 26 31 34 33 32 31 30 31 33 34 29 24 25 27 28 29 28 29 29 27 28 29 30 30 32 34 35 35 36 39 42 44 42 41 40 38 34 29 28 26 24 25 28 32 34 33 33 30 28 30 31 31 30 31 33 34 36 40 42 43 45 47 48 47 47 46 47 50 50 51 51 48 45 44 47 49 49 46 42 41 49 49 44 42 38 35 36 33 31 33 31 29 30
22 24 26 25 25 30 34 34 34 35 34 31 32 33 27 23 25 26 28 28 27 28 28 25 25 26 27 28 28 30 33 33 35 37 40 43 42 39 38 36 32 29 28 27 25 25 27 31 35 34 31 29 29 30 31 31 31 32 34 34 37 41 44 45 48 52 51 47 48 50 51 53 55 58 58 53 50 49 50 53 53 51 47 47 55 55 49 51 49 46 45 39 32 33 33 31 30
22 23 22 25 30 32 33 34 35 38 37 31 30 35 31 24 24 25 28 28 27 27 26 24 24 25 27 27 26 27 29 30 33 36 38 40 39 37 37 35 32 29 29 29 28 27 27 29 33 34 31 29 29 29 29 30 31 33 34 35 38 41 44 47 50 53 53 49 49 50 51 52 56 62 64 59 56 54 52 52 53 53 51 50 58 62 58 56 53 53 55 48 39 36 35 34 32
19 22 23 27 31 32 33 35 35 38 37 31 29 34 32 24 22 25 28 28 26 26 26 26 26 25 26 26 26 27 27 28 31 35 37 39 38 38 37 35 33 31 30 30 30 30 28 28 30 31 29 28 28 27 28 30 31 33 33 34 39 43 43 47 51 53 52 50 49 49 50 52 59 66 68 63 62 61 58 54 53 55 57 56 58 63 63 60 53 51 56 54 46 41 38 38 37
13 19 24 26 27 30 33 34 34 36 36 32 31 32 30 22 20 24 28 27 27 26 26 26 26 25 25 26 26 27 28 29 31 34 36 39 40 40 39 35 33 31 30 31 32 31 29 28 28 28 27 26 25 25 27 30 31 31 32 33 38 42 43 47 50 49 48 47 46 49 50 51 57 64 65 62 62 62 60 57 55 57 64 66 64 62 62 61 54 50 54 55 50 46 42 40 40
11 16 21 24 26 29 30 32 34 35 34 33 33 31 27 22 19 22 26 27 26 26 25 25 25 24 24 25 25 26 28 29 31 33 35 38 40 40 39 36 34 33 32 32 32 32 30 29 28 29 27 25 24 25 29 32 32 31 32 34 37 41 44 45 45 45 46 46 48 52 53 52 56 60 61 59 58 57 58 59 58 60 67 73 73 66 63 63 58 52 52 54 53 51 49 46 43
10 12 15 21 26 28 31 34 35 35 34 32 32 30 27 25 20 19 24 25 24 24 24 23 23 23 23 24 24 26 29 31 32 33 34 37 40 40 38 37 35 34 33 33 31 32 32 31 32 32 29 27 26 28 31 33 34 35 35 36 38 40 43 43 43 46 47 48 53 56 55 55 58 60 61 62 59 57 58 58 59 63 67 72 76 71 68 67 63 58 56 57 56 54 54 52 48